GW2085 Weather Reports


Display with metric or nautical units.
time (UTC)temp
F
wind
direction
speed
MPH
gust
MPH
rain 1hr
in
rain 24hr
in
rain mn
in
humidity
%
barometer
mb
20260901164608 73 0 2.0 7.0 0.00 0.00 0.00 71 1015.7
20260901163104 72 242 0.0 4.0 0.00 0.00 0.00 75 1015.7
20260901161557 71 236 1.0 3.0 0.00 0.00 0.00 78 1015.6
20260901160105 69 213 1.0 5.0 0.00 0.00 0.00 82 1015.6
20260901154600 67 131 1.0 3.0 0.00 0.00 0.00 89 1015.5
20260901153110 65 250 0.0 3.0 0.00 0.00 0.00 92 1015.4
20260901151601 63 0 0.0 1.0 0.00 0.00 0.00 93 1015.2
20260901150100 62 0 0.0 1.0 0.00 0.00 0.00 92 1015.1
20260901144602 61 171 0.0 1.0 0.00 0.00 0.00 93 1015.2
20260901143105 61 0 0.0 2.0 0.00 0.00 0.00 93 1015.2
20260901141600 60 0 0.0 0.0 0.00 0.00 0.00 93 1015.2
20260901140106 59 0 0.0 0.0 0.00 0.00 0.00 93 1015.2
20260901134607 58 0 0.0 0.0 0.00 0.00 0.00 93 1015.0
20260901133053 58 0 0.0 0.0 0.00 0.00 0.00 93 1014.6
20260901131607 58 0 0.0 0.0 0.00 0.00 0.00 92 1014.6
20260901130100 59 0 0.0 0.0 0.00 0.00 0.00 92 1014.5
20260901124555 59 0 0.0 0.0 0.00 0.00 0.00 92 1014.3
20260901123103 59 0 0.0 0.0 0.00 0.00 0.00 92 1014.3
20260901121603 59 0 0.0 0.0 0.00 0.00 0.00 92 1014.2
20260901120056 59 0 0.0 0.0 0.00 0.00 0.00 91 1014.2
20260901114559 59 0 0.0 0.0 0.00 0.00 0.00 91 1014.3
20260901113102 59 0 0.0 0.0 0.00 0.00 0.00 92 1014.4
20260901111556 59 0 0.0 0.0 0.00 0.00 0.00 91 1014.3
20260901110055 59 0 0.0 0.0 0.00 0.00 0.00 91 1014.4
20260901104609 59 0 0.0 0.0 0.00 0.00 0.00 91 1014.4
20260901103057 60 0 0.0 0.0 0.00 0.00 0.00 91 1014.5
20260901101612 60 0 0.0 0.0 0.00 0.00 0.00 91 1014.5
20260901100105 60 0 0.0 0.0 0.00 0.00 0.00 90 1014.4
20260901094600 60 0 0.0 0.0 0.00 0.00 0.00 90 1014.5
20260901093058 61 0 0.0 0.0 0.00 0.00 0.00 90 1014.4
20260901091610 61 0 0.0 0.0 0.00 0.00 0.00 90 1014.5
20260901090055 61 0 0.0 0.0 0.00 0.00 0.00 90 1014.4
20260901084558 61 0 0.0 0.0 0.00 0.00 0.00 89 1014.6
20260901083057 61 0 0.0 0.0 0.00 0.00 0.00 89 1014.5
20260901081555 62 0 0.0 0.0 0.00 0.00 0.00 88 1014.6
20260901080104 62 0 0.0 0.0 0.00 0.00 0.00 88 1014.4
20260901074614 62 0 0.0 0.0 0.00 0.00 0.00 87 1014.6
20260901073057 63 0 0.0 0.0 0.00 0.00 0.00 87 1014.6
20260901071601 63 0 0.0 0.0 0.00 0.00 0.00 86 1014.6
20260901070111 63 0 0.0 0.0 0.00 0.00 0.00 85 1014.7
20260901064558 64 0 0.0 0.0 0.00 0.00 0.00 85 1014.6
20260901063117 64 0 0.0 0.0 0.00 0.00 0.00 85 1014.5
20260901061554 64 0 0.0 0.0 0.00 0.00 0.00 84 1014.4
20260901054558 65 0 0.0 0.0 0.00 0.00 0.00 83 1014.5
20260901053115 65 0 0.0 0.0 0.00 0.00 0.00 83 1014.4
20260901051611 66 0 0.0 0.0 0.00 0.00 0.00 82 1014.2
20260901050056 66 0 0.0 0.0 0.00 0.00 0.00 81 1014.2
20260901044557 66 0 0.0 0.0 0.00 0.00 0.00 80 1014.2
20260901043106 67 0 0.0 0.0 0.00 0.00 0.00 79 1014.2
20260901041608 68 0 0.0 0.0 0.00 0.00 0.00 77 1014.0
20260901040100 68 0 0.0 0.0 0.00 0.00 0.00 75 1014.2
20260901034559 69 0 0.0 0.0 0.00 0.00 0.00 73 1014.0
20260901033107 70 0 0.0 2.0 0.00 0.00 0.00 72 1013.7
20260901031607 71 248 0.0 1.0 0.00 0.00 0.00 70 1013.4
20260901030059 72 0 0.0 1.0 0.00 0.00 0.00 67 1013.2
20260901024556 73 0 0.0 3.0 0.00 0.00 0.00 66 1013.2
20260901023102 74 0 0.0 2.0 0.00 0.00 0.00 64 1012.9
20260901021601 75 0 0.0 2.0 0.00 0.00 0.00 61 1012.6
20260901020100 76 234 1.0 3.0 0.00 0.00 0.00 60 1012.5
20260901014606 77 247 2.0 5.0 0.00 0.00 0.00 56 1012.3
20260901013102 80 240 0.0 4.0 0.00 0.00 0.00 54 1012.3
20260901011558 81 3 1.0 5.0 0.00 0.00 0.00 54 1012.4
20260901010106 82 283 2.0 7.0 0.00 0.00 0.00 53 1012.5
20260901004613 83 237 3.0 6.0 0.00 0.00 0.00 50 1012.5
20260901003109 84 233 3.0 6.0 0.00 0.00 0.00 46 1012.5
20260901001600 84 233 2.0 7.0 0.00 0.00 0.00 45 1012.5
20260901000112 84 255 1.0 9.0 0.00 0.00 0.00 42 1012.7
20260831234628 84 213 1.0 8.0 0.00 0.00 0.00 45 1012.8
20260831233118 85 242 3.0 8.0 0.00 0.00 0.00 44 1012.7
20260831231607 85 285 3.0 7.0 0.00 0.00 0.00 45 1012.6
20260831224606 85 276 2.0 9.0 0.00 0.00 0.00 42 1012.8
20260831223054 86 266 2.0 11.0 0.00 0.00 0.00 42 1012.9
20260831221603 87 115 4.0 11.0 0.00 0.00 0.00 43 1013.1
20260831220100 88 273 2.0 8.0 0.00 0.00 0.00 40 1013.1
20260831214604 87 285 4.0 8.0 0.00 0.00 0.00 40 1013.0
20260831213053 88 290 3.0 8.0 0.00 0.00 0.00 41 1013.0
20260831211600 87 264 4.0 10.0 0.00 0.00 0.00 40 1013.2
20260831210056 87 136 4.0 9.0 0.00 0.00 0.00 40 1013.3
20260831204631 89 179 3.0 8.0 0.00 0.00 0.00 39 1013.4
20260831203114 88 119 2.0 7.0 0.00 0.00 0.00 42 1013.5
20260831201557 89 280 3.0 9.0 0.00 0.00 0.00 42 1013.4
20260831200106 88 267 5.0 10.0 0.00 0.00 0.00 44 1013.5
20260831194605 89 84 2.0 5.0 0.00 0.00 0.00 42 1013.6
20260831193058 90 233 2.0 7.0 0.00 0.00 0.00 39 1013.7
20260831191555 89 196 1.0 5.0 0.00 0.00 0.00 42 1013.8
20260831190054 88 89 1.0 5.0 0.00 0.00 0.00 43 1013.9
20260831184559 87 236 1.0 7.0 0.00 0.00 0.00 42 1014.0
20260831183055 86 243 2.0 7.0 0.00 0.00 0.00 45 1014.0
20260831181555 84 281 2.0 6.0 0.00 0.00 0.00 49 1014.0
20260831180106 83 328 2.0 5.0 0.00 0.00 0.00 53 1013.9
20260831174605 84 271 1.0 5.0 0.00 0.00 0.00 54 1014.0
20260831173059 82 82 1.0 4.0 0.00 0.00 0.00 58 1014.0
20260831171556 81 89 0.0 4.0 0.00 0.00 0.00 61 1013.9
20260831170100 80 207 1.0 4.0 0.00 0.00 0.00 63 1014.0